SL-8 DEB *, 3931

Orbit data source: Space-Track

SL-8 DEB *, 3931 is space debris in LEO originally from a launch on Mon, 15 Mar 1965 UTC launched from the Tyuratam Missile And Space Complex (TTMTR). Debris objects in space refer to the collection of defunct objects orbiting the Earth. Examples of debris include non-operational satellites, rocket bodies, and fragments generated from explosions, collisions, or faulty payload assembly.

Loading next visibility...
Identifier
3931, 1965-020EV
Orbit
LEO
Country
Flag of CISCIS
Related business
Manufacturer
Unknown
Mission
Spacecraft
Bus & Motor
Unknown
Mass
Unknown
Launch date (UTC)
1965-03-15 (61 years ago)
Launch vehicle
Unknown
Launch site
Tyuratam Missile And Space Complex (TTMTR)
Object type
Payload
Rocket body
Debris
Shape & HBR
Unknown shape, 0.1 m
Radar Cross Section
Small (<0.1 m²)

Expand to show TLE details & history
Last TLE update: 13 hours ago

TLE from 13 hours ago
0 SL-8 DEB *
1  3931U 65020EV  25289.04464293 -.00000056  00000-0  27396-3 0  9999
2  3931  56.0592 143.3085 0193651 123.9547  28.7287 12.35205603746991
Epoch: 2025-10-16T01:04Z
TLE epoch observation values (Epoch: 2025-10-16T01:04:17.149Z)
Latitude
21.54901°
Longitude
-92.90719°
Altitude
1,394.26 km
Speed
7.225 km/s
True Right ascension
20h 31m 53s
True Declination
21° 26' 29"
Sunlit
Object was in daylight at epoch
Visualization orbit readout
Latitude
Unknown
Longitude
Unknown
Altitude
Unknown
Speed
Unknown
Apparent Right ascension
Unknown
Apparent Declination
Unknown
Sunlit
N/A
Visualization observer readout
Local Sidereal Time
09:08:40
Azimuth
Unknown
Elevation
Unknown
Doppler factor
Unknown
Orbital elements
Apogee altitude
1,679.897 km
Perigee altitude
1,373.737 km
Semi-major axis
7,904.954 km
Eccentricity
0.01937
Inclination
56.0592°
RAAN
143.3085°
Arg. of periapsis
123.9547°
True anomaly
29.81837°
Mean anomaly
28.7287°
Eccentric anomaly
29.2712°
Mean motion
3.08812 °/min
Orbital period
116.58 mins
BSTAR
0.00027396
Loading maneuver chart data...
Computing Atmospheric mass density...

Documentation

Showing up to 5 results
|